Retour au catalogue

STARLINK-35211

ActifCommunicationsVLEO
NORAD 65757·PAYLOAD·🇺🇸 United States

Lancé Sep 25, 2025 depuis Cape Canaveral Space Force Station

Loading…

Prochains Passages (prochaines 24 heures)

TLE

FraisSource: CelesTrak SupGP

Époque: Sep 14, 2026, 21:15 UTC

1 65757C 25216Z   26257.88590278 -.00031970  00000+0 -94429-3 0  2574
2 65757  53.1584 171.6890 0001294  88.3850 297.1148 15.34415232    11

Suivez STARLINK-35211 en temps réel avec AllMySat

Download on the App Store